Regional Weather Roundup
Issued by NWS Mt. Holly, NJ

Home | Current Version | Previous Version | Text Only | Print | Product List | Glossary On
Versions: 1 2 3 4 5 6 7 8 9 10 11 12 13 14 15 16 17 18 19 20 21 22 23 24 25 26 27
000
ASUS41 KPHI 190311
RWRPHI

REGIONAL WEATHER ROUNDUP
NATIONAL WEATHER SERVICE MOUNT HOLLY NJ
1000 PM EST SAT NOV 18 2017

NOTE:  "FAIR" INDICATES FEW OR NO CLOUDS BELOW 12,000 FEET WITH NO
SIGNIFICANT WEATHER AND/OR OBSTRUCTIONS TO VISIBILITY.

 * = STATION DOES NOT REPORT PRECIPITATION (E.G. RAIN, SNOW, ETC.)
        OR FOG.

NJZ015>026-190400-
SOUTHERN NEW JERSEY

CITY           SKY/WX    TMP DP  RH WIND       PRES   REMARKS
POMONA         CLOUDY    59  53  80 S17G26    29.53F
MILLVILLE      CLOUDY    60  51  72 S9        29.52F
WRIGHTSTOWN    CLOUDY    55  49  80 SW16      29.46F
MOUNT HOLLY    CLOUDY    56  49  77 VRB7G20   29.48F
TRENTON        CLOUDY    48  45  89 S6        29.47F

$$
NJZ001>014-190400-
NORTHERN NEW JERSEY

CITY           SKY/WX    TMP DP  RH WIND       PRES   REMARKS
SUSSEX         CLOUDY    41  41 100 CALM      29.46F FOG
ANDOVER*       NOT AVBL
MORRISTOWN     CLOUDY    43  43 100 CALM      29.49F FOG
NEWARK         CLOUDY    51  46  83 VRB3      29.50F
TETERBORO      CLOUDY    50  45  83 S5        29.49F
CALDWELL       CLOUDY    43  43 100 CALM      29.50F FOG
SOMERVILLE     CLOUDY    43  43 100 CALM      29.46F FOG
ALLAIRE*       CLOUDY    55  50  83 S12       29.51F
TOMS RIVER*    CLOUDY    57  51  80 SW10G23   29.51F

$$
PAZ043-044-047-054-055-060>062-066>071-190400-
EASTERN PENNSYLVANIA

CITY           SKY/WX    TMP DP  RH WIND       PRES   REMARKS
PHILADELPHIA   CLOUDY    57  47  69 S15       29.47F
NORTH PHILA    CLOUDY    52  46  80 S6        29.48F
BLUE BELL*     CLOUDY    50  45  81 S8        29.46F
DOYLESTOWN     MOCLDY    46  44  93 SE6       29.45F
QUAKERTOWN*    CLOUDY    46  43  87 S5        29.45F
PERKASIE*      FAIR      46  45  93 S5        29.45F
POTTSTOWN      CLOUDY    45  45 100 CALM      29.45F
LANCASTER      MOCLDY    53  46  77 S12       29.41F
COATESVILLE    CLOUDY    54  48  82 S13G21    29.44F
READING        LGT RAIN  47  46  97 S5        29.42F
ALLENTOWN      CLOUDY    45  42  89 E3        29.45F
MOUNT POCONO   LGT RAIN  42  41  96 S10G17    29.41F
HAZLETON       RAIN      43  41  93 SE13G21   29.40F
LEHIGHTON      LGT RAIN  41  41 100 CALM      29.45F
WILKES BARRE   LGT RAIN  48  42  80 SW13G22   29.37F

$$
DEZALL-MDZ008-012-015-019-020-190400-
DELAWARE AND EASTERN MARYLAND

CITY           SKY/WX    TMP DP  RH WIND       PRES   REMARKS
WILMINGTON     CLOUDY    58  48  69 S13G21    29.48F
DOVER          CLOUDY    61  60  97 S24G30    29.50F
GEORGETOWN     CLOUDY    62  51  67 SW20      29.58F
EASTON         CLOUDY    60  50  69 S13       29.58F
ABERDEEN       CLOUDY    60  49  68 S20G29    29.45F
OCEAN CITY     CLOUDY    59  52  77 SW20G31   29.60F
WALLOPS ISLAND CLOUDY    59  53  80 S21       29.63F
CAMBRIDGE      CLOUDY    59  52  77 S12G18    29.57F
SALISBURY      CLOUDY    62  53  72 SW23G35   29.58F

$$
PAZ001-021-NYZ056-072-MDZ011-DCZ001-190400-
OTHER NEARBY LOCATIONS

CITY           SKY/WX    TMP DP  RH WIND       PRES   REMARKS
HARRISBURG     CLOUDY    45  44  97 SE3       29.38F
STATE COLLEGE  RAIN      41  39  93 W8        29.33F
WILLIAMSPORT   LGT RAIN  44  42  93 NE14G20   29.36F
BINGHAMTON     RAIN      42  40  92 S12       29.29F
NEW YORK CITY  CLOUDY    51  46  83 VRB6      29.52F
BALTIMORE      CLOUDY    61  48  62 SW13G23   29.45F
WASHINGTON DC  CLOUDY    63  49  60 S22G31    29.48R

$$




USA.gov is the U.S. government's official web portal to all federal, state and local government web resources and services.